Weather reports worldwide

Advertisment
New Iberia, la, United States of America (2072047): temperature & dewpoint: 13.05.2019 14:00:00 - 19.05.2019 14:00:00 (CDT)New Iberia, la, United States of America (2072047): wind speed & gusts: 13.05.2019 14:00:00 - 19.05.2019 14:00:00 (CDT)New Iberia, la, United States of America (2072047): wind direction: 13.05.2019 14:00:00 - 19.05.2019 14:00:00 (CDT)New Iberia, la, United States of America (2072047): reduced air pressure: 13.05.2019 14:00:00 - 19.05.2019 14:00:00 (CDT)New Iberia, la, United States of America (2072047): visibility: 13.05.2019 14:00:00 - 19.05.2019 14:00:00 (CDT)New Iberia, la, United States of America (2072047): precipitation: 13.05.2019 14:00:00 - 19.05.2019 14:00:00 (CDT)
Date & Time tt [°C] td [°C] ff [km/h] ff [kn] fx [km/h] fx [kn] dd ppp [hPa] vv [km] rr [mm]
19.05.2019 14:00:00 25,6 21,7 11 6 - - ESE 1015,0 16 -
19.05.2019 13:00:00 24,4 22,2 16 9 - - SE 1015,5 16 -
19.05.2019 12:00:00 22,2 21,1 15 8 - - SSE 1015,6 16 0,0
19.05.2019 11:00:00 20,6 20,6 13 7 - - ESE 1015,7 16 0,5
19.05.2019 10:00:00 20,0 20,0 11 6 - - S 1015,1 16 0,0
19.05.2019 09:00:00 19,4 19,4 11 6 - - NE 1014,5 2,4 17,8
19.05.2019 08:00:00 18,9 18,9 26 14 91 49 N 1013,5 1,6 44,7
19.05.2019 07:00:00 26,1 24,4 26 14 - - SSE 1011,4 16 -
19.05.2019 06:00:00 26,1 24,4 28 15 - - SSE 1010,2 16 -
19.05.2019 05:00:00 26,1 24,4 22 12 - - SSE 1010,4 16 -
19.05.2019 04:00:00 26,1 24,4 24 13 - - SSE 1011,0 16 -
19.05.2019 03:00:00 26,1 24,4 26 14 - - SSE 1010,8 16 -
19.05.2019 02:00:00 26,1 24,4 22 12 - - SSE 1010,7 16 -
19.05.2019 01:00:00 26,1 24,4 28 15 - - SSE 1010,9 16 -
19.05.2019 00:00:00 26,1 24,4 28 15 - - SSE 1011,2 16 -
18.05.2019 23:00:00 26,1 23,9 18 10 - - SSE 1011,3 16 -
18.05.2019 22:00:00 26,1 23,9 29 16 - - SSE 1010,0 16 -
18.05.2019 21:00:00 26,1 23,9 24 13 - - SSE 1010,0 16 -
18.05.2019 20:00:00 26,7 23,9 29 16 - - SSE 1010,1 16 -
18.05.2019 19:00:00 27,8 23,3 28 15 - - SSE 1010,5 16 -
18.05.2019 18:00:00 28,9 23,3 31 17 - - S 1009,7 16 -
18.05.2019 17:00:00 28,9 23,3 37 20 48 26 SSE 1010,5 16 -
18.05.2019 16:00:00 30,0 23,3 35 19 48 26 S 1011,1 16 -
18.05.2019 15:00:00 30,0 23,3 28 15 52 28 S 1011,6 16 -
18.05.2019 14:00:00 30,0 22,8 35 19 52 28 S 1011,6 16 -
18.05.2019 13:00:00 30,6 22,8 35 19 50 27 S 1012,1 16 -
18.05.2019 12:00:00 29,4 22,8 37 20 48 26 SSE 1012,6 16 -
18.05.2019 11:00:00 28,9 23,3 29 16 52 28 S 1013,0 16 -
18.05.2019 10:00:00 27,2 23,3 29 16 - - SSE 1012,9 16 -
18.05.2019 09:00:00 26,7 23,9 26 14 - - SSE 1012,9 16 -
18.05.2019 08:00:00 24,4 23,3 16 9 - - SE 1012,5 16 -
18.05.2019 07:00:00 22,8 22,2 15 8 - - SE 1012,4 16 -
18.05.2019 06:00:00 22,2 21,7 11 6 - - SE 1012,3 16 -
18.05.2019 05:00:00 21,7 21,1 13 7 - - SE 1012,1 10 -
18.05.2019 04:00:00 21,7 20,6 11 6 - - SE 1012,2 16 -
18.05.2019 03:00:00 21,7 20,6 9 5 - - SE 1012,3 16 -
18.05.2019 02:00:00 21,1 20,0 9 5 - - SE 1012,7 16 -
18.05.2019 01:00:00 21,1 20,0 9 5 - - SE 1013,3 16 -
18.05.2019 00:00:00 22,8 20,6 15 8 - - SE 1013,2 16 -
17.05.2019 23:00:00 23,3 20,6 13 7 - - ESE 1013,6 16 -
17.05.2019 22:00:00 23,3 21,1 13 7 - - SE 1013,5 16 -
17.05.2019 21:00:00 24,4 21,1 15 8 - - SSE 1013,2 16 -
17.05.2019 20:00:00 25,0 20,6 13 7 - - S 1013,0 16 -
17.05.2019 19:00:00 26,7 20,0 21 11 - - S 1012,8 16 -
17.05.2019 18:00:00 27,8 20,0 24 13 - - S 1013,0 16 -
17.05.2019 17:00:00 28,9 20,6 18 10 - - SSE 1013,2 16 -
17.05.2019 16:00:00 29,4 20,6 21 11 - - S 1013,5 16 -
17.05.2019 15:00:00 29,4 20,0 21 11 - - S 1014,0 16 -
17.05.2019 14:00:00 28,9 20,6 21 11 - - SSW 1014,5 16 -
17.05.2019 13:00:00 28,9 19,4 18 10 - - S 1014,8 16 -
17.05.2019 12:00:00 28,3 18,9 18 10 - - SSE 1015,0 16 -
17.05.2019 11:00:00 27,2 19,4 18 10 - - SE 1015,3 16 -
17.05.2019 10:00:00 26,1 18,9 16 9 - - SSE 1015,5 16 -
17.05.2019 09:00:00 24,4 20,6 15 8 - - SSE 1015,8 16 -
17.05.2019 08:00:00 21,7 20,6 9 5 - - SE 1015,5 16 0,0
17.05.2019 07:00:00 18,9 18,9 5 3 - - ESE 1014,9 16 -
17.05.2019 06:00:00 17,8 17,8 9 5 - - SE 1014,3 16 -
17.05.2019 05:00:00 18,9 18,3 8 4 - - SE 1014,3 16 -
17.05.2019 04:00:00 18,3 17,8 9 5 - - SE 1014,4 16 -
17.05.2019 03:00:00 18,9 18,3 8 4 - - ESE 1014,7 16 -
17.05.2019 02:00:00 20,0 18,3 8 4 - - E 1015,2 16 -
17.05.2019 01:00:00 20,0 18,3 8 4 - - ESE 1015,6 16 -
17.05.2019 00:00:00 20,6 18,9 5 3 - - SE 1015,9 16 -
16.05.2019 23:00:00 21,1 19,4 5 3 - - S 1016,0 16 -
16.05.2019 22:00:00 22,2 18,9 5 3 - - S 1015,8 16 -
16.05.2019 21:00:00 22,8 18,9 9 5 - - S 1015,3 16 -
16.05.2019 20:00:00 24,4 18,3 9 5 - - S 1015,2 16 -
16.05.2019 19:00:00 26,7 17,2 15 8 - - S 1015,0 16 -
16.05.2019 18:00:00 28,3 18,9 18 10 - - S 1015,2 16 -
16.05.2019 17:00:00 28,9 19,4 15 8 - - SSW 1015,7 16 -
16.05.2019 16:00:00 30,0 20,0 15 8 - - SSW 1015,8 16 -
16.05.2019 15:00:00 29,4 17,8 15 8 - - ESE 1016,6 16 -
16.05.2019 14:00:00 28,9 17,8 18 10 - - ESE 1017,2 16 -
16.05.2019 13:00:00 29,4 17,8 21 11 - - SE 1017,4 16 -
16.05.2019 12:00:00 27,8 18,9 9 5 - - E 1018,1 16 -
16.05.2019 11:00:00 27,2 20,0 5 3 - - - 1018,5 16 -
16.05.2019 10:00:00 26,7 20,0 9 5 - - NNE 1018,6 16 -
16.05.2019 09:00:00 24,4 20,6 8 4 - - NE 1018,5 16 -
16.05.2019 08:00:00 22,8 21,7 5 3 - - NE 1018,2 16 0,0
16.05.2019 07:00:00 20,0 20,0 0 0 - - N 1017,6 16 0,0
16.05.2019 06:00:00 18,9 18,9 0 0 - - N 1016,9 16 -
16.05.2019 05:00:00 19,4 19,4 0 0 - - N 1016,4 16 -
16.05.2019 04:00:00 19,4 19,4 0 0 - - N 1016,2 13 -
16.05.2019 03:00:00 20,0 19,4 0 0 - - N 1016,4 16 -
16.05.2019 02:00:00 20,6 20,0 0 0 - - N 1016,7 16 -
16.05.2019 01:00:00 20,6 20,0 0 0 - - N 1017,3 16 -
16.05.2019 00:00:00 21,7 20,6 0 0 - - N 1017,2 16 -
15.05.2019 23:00:00 22,2 20,6 0 0 - - N 1017,2 16 -
15.05.2019 22:00:00 22,8 20,0 8 4 - - S 1017,0 16 -
15.05.2019 21:00:00 21,7 19,4 11 6 - - S 1016,3 16 -
15.05.2019 20:00:00 25,0 18,9 11 6 - - S 1015,9 16 -
15.05.2019 19:00:00 27,2 18,3 15 8 - - SSW 1015,5 16 -
15.05.2019 18:00:00 28,3 16,1 11 6 - - E 1015,5 16 -
15.05.2019 17:00:00 29,4 16,7 9 5 - - E 1015,4 16 -
15.05.2019 16:00:00 30,0 16,1 8 4 - - - 1015,7 16 -
15.05.2019 15:00:00 30,6 16,1 11 6 - - E 1016,3 16 -
15.05.2019 14:00:00 28,9 16,1 11 6 - - - 1016,9 16 0,0
15.05.2019 13:00:00 28,9 15,6 8 4 - - - 1017,5 16 -
15.05.2019 12:00:00 27,8 15,6 8 4 - - - 1018,0 16 -
15.05.2019 11:00:00 26,7 15,6 5 3 - - E 1018,2 16 -
15.05.2019 10:00:00 25,6 16,7 0 0 - - N 1018,3 16 -
15.05.2019 09:00:00 23,9 18,3 5 3 - - NNE 1018,4 16 -
15.05.2019 08:00:00 21,1 17,8 9 5 - - NNE 1017,7 16 -
15.05.2019 07:00:00 18,9 17,2 5 3 - - N 1016,9 16 -
15.05.2019 06:00:00 17,2 16,1 8 4 - - NNE 1016,1 16 -
15.05.2019 05:00:00 17,2 16,1 0 0 - - N 1015,8 16 -
15.05.2019 04:00:00 18,3 17,2 0 0 - - N 1015,6 16 -
15.05.2019 03:00:00 18,3 17,8 0 0 - - N 1015,6 16 -
15.05.2019 02:00:00 18,9 17,8 0 0 - - N 1015,7 16 -
15.05.2019 01:00:00 20,6 17,2 0 0 - - N 1016,3 16 -
15.05.2019 00:00:00 20,0 17,2 0 0 - - N 1016,4 16 -
14.05.2019 23:00:00 20,6 17,2 5 3 - - SE 1016,6 16 -
14.05.2019 22:00:00 21,1 17,2 8 4 - - SSE 1016,4 16 -
14.05.2019 21:00:00 21,7 17,2 8 4 - - S 1016,2 16 -
14.05.2019 20:00:00 23,3 16,1 9 5 - - SSW 1015,5 16 -
14.05.2019 19:00:00 26,7 13,3 8 4 - - SE 1014,8 16 -
14.05.2019 18:00:00 28,3 12,8 13 7 - - E 1015,1 16 -
14.05.2019 17:00:00 28,9 12,2 16 9 - - ESE 1015,2 16 -
14.05.2019 16:00:00 28,9 12,8 18 10 - - ESE 1015,4 16 -
14.05.2019 15:00:00 28,9 12,8 16 9 - - ENE 1015,7 16 -
14.05.2019 14:00:00 28,3 12,2 15 8 - - ENE 1015,8 16 -
14.05.2019 13:00:00 28,3 11,7 16 9 - - E 1016,2 16 -
14.05.2019 12:00:00 27,8 12,2 15 8 - - E 1017,0 16 -
14.05.2019 11:00:00 26,7 12,8 16 9 - - ESE 1017,2 16 -
14.05.2019 10:00:00 25,6 13,3 16 9 - - ENE 1017,4 16 -
14.05.2019 09:00:00 22,8 13,3 15 8 - - E 1017,4 16 -
14.05.2019 08:00:00 20,6 13,9 13 7 - - E 1016,8 16 -
14.05.2019 07:00:00 18,3 13,9 11 6 - - ENE 1016,2 16 -
14.05.2019 06:00:00 17,2 13,9 0 0 - - N 1015,8 16 -
14.05.2019 05:00:00 18,3 13,9 11 6 - - ENE 1015,2 16 -
14.05.2019 04:00:00 17,8 13,3 9 5 - - ENE 1014,9 16 -
14.05.2019 03:00:00 18,3 13,3 8 4 - - E 1014,5 16 -
14.05.2019 02:00:00 19,4 13,3 9 5 - - ENE 1014,8 16 -
14.05.2019 01:00:00 19,4 12,8 11 6 - - ENE 1015,0 16 -
14.05.2019 00:00:00 18,9 12,8 16 9 - - NE 1015,1 16 -
13.05.2019 23:00:00 20,6 12,8 15 8 - - NNE 1015,1 16 -
13.05.2019 22:00:00 20,6 12,8 15 8 - - NNE 1014,8 16 -
13.05.2019 21:00:00 21,7 12,8 11 6 - - N 1014,2 16 -
13.05.2019 20:00:00 22,8 12,2 13 7 - - NNE 1013,6 16 -
13.05.2019 19:00:00 26,1 12,8 15 8 - - NNE 1013,0 16 -
13.05.2019 18:00:00 27,2 13,9 18 10 - - NNE 1012,4 16 -
13.05.2019 17:00:00 27,8 15,6 21 11 - - N 1012,1 16 -
13.05.2019 16:00:00 28,3 15,6 16 9 - - NNE 1012,6 16 -
13.05.2019 15:00:00 27,8 15,0 11 6 - - NE 1013,1 16 -
13.05.2019 14:00:00 27,2 16,1 15 8 - - NNE 1013,4 16 -

tt = temperature
td = dewpoint
ff = wind speed
fx = gusts
dd = wind direction
ppp = reduced air pressure
vv = visibility
rr = precipitation

Next stations